カタログに戻る

STARLINK-36043

運用中通信VLEO
NORAD 66901·PAYLOAD·🇺🇸 United States

打ち上げ Dec 4, 2025 から Vandenberg Space Force Base

Loading…

次のパス (今後24時間)

TLE

最新Source: CelesTrak SupGP

元期: Sep 15, 2026, 02:39 UTC

1 66901C 25283Z   26258.11090278 -.00038360  00000+0 -11334-2 0  2586
2 66901  53.1579 220.5984 0001437  85.8175  69.2045 15.34408161    13

AllMySatでSTARLINK-36043をリアルタイム追跡

Download on the App Store